Home   Weather   Bruck an der Mur   Past weeks

Flag for Austria Past Weather in Bruck an der Mur, Styria, Austria — Yesterday and Last 2 Weeks

Now
21 °F

Clear.


Feels Like: 21 °F
Forecast: 13 / 45 °F
Wind: 1 mph from North

Location: Zeltweg

Current Time: Dec 7, 2016 at 9:39:53 pm

Latest Report: Dec 7, 2016 at 8:50 pm


Visibility: 6 mi

Pressure: 30.60 "Hg

Humidity: 93%

Dew Point: 19 °F

Location of Bruck an der MurLocation

Past Weather in Bruck an der Mur — Graph

°F

Bruck an der Mur Temperature Yesterday

Maximum temperature yesterday: 39 °F (at 2:50 pm)
Minimum temperature yesterday: 14 °F (at 4:50 am)
Average temperature yesterday: 27 °F

High & Low Weather Summary for the Past Weeks

 TemperatureHumidityPressure
High59 °F (Nov 23, 12:20 pm)100% (Nov 23, 8:20 am)30.60 "Hg (Nov 23, 8:20 am)
Low14 °F (Dec 6, 4:50 am)21% (Dec 2, 5:50 am)29.80 "Hg (Dec 2, 5:50 am)
Average36 °F72%30.19 "Hg
* Reported Nov 22 7:20 pm — Dec 7 7:50 pm, Bruck an der Mur, Weather by CustomWeather, © 2016

Note: Actual official high and low records may vary slightly from our data, if they occured in-between our weather recording intervals... More about our weather records

Advertising

Bruck an der Mur Weather History for the Previous 24 Hours

Scroll right to see more
 ConditionsComfort  
Time TempWeatherWind HumidityBarometerVisibility
7:50 pm
Wed, Dec 7
23 °FPassing clouds.2 mph86%30.60 "Hg6 mi
6:50 pm21 °FPassing clouds.3 mph86%30.60 "Hg6 mi
5:50 pm27 °FPassing clouds.1 mph80%30.60 "Hg6 mi
4:20 pm32 °FPassing clouds.1 mph75%30.57 "Hg12 mi
3:50 pm36 °FScattered clouds.1 mph65%30.57 "Hg19 mi
3:20 pm37 °FPartly sunny.1 mph60%30.54 "Hg19 mi
2:50 pm37 °FPartly sunny.2 mph60%30.54 "Hg19 mi
2:20 pm37 °FPartly sunny.1 mph60%30.54 "Hg19 mi
1:50 pm36 °FPartly sunny.1 mph60%30.54 "Hg19 mi
1:20 pm37 °FPartly sunny.1 mph60%30.54 "Hg19 mi
12:50 pm36 °FScattered clouds.1 mph65%30.57 "Hg19 mi
12:20 pm34 °FScattered clouds.2 mph70%30.57 "Hg19 mi
11:50 am32 °FScattered clouds.1 mph69%30.57 "Hg19 mi
11:20 am32 °FPassing clouds.2 mph75%30.60 "Hg19 mi
10:50 am28 °FPassing clouds.1 mph86%30.60 "Hg19 mi
10:20 am28 °FPassing clouds.1 mph86%30.60 "Hg19 mi
9:50 am27 °FSunny.3 mph86%30.60 "Hg19 mi
9:20 am25 °FSunny.1 mph93%30.60 "Hg19 mi
8:50 am21 °FSunny.2 mph93%30.60 "Hg19 mi
8:20 am19 °FSunny.1 mph93%30.57 "Hg12 mi
7:20 am18 °FClear.2 mph86%30.57 "Hg1 mi
6:50 am18 °FClear.2 mph93%30.57 "Hg12 mi
5:50 am18 °FClear.1 mph93%30.54 "Hg5 mi
4:50 am18 °FClear.2 mph93%30.51 "Hg6 mi
9:50 pm
Tue, Dec 6
23 °FClear.3 mph86%30.45 "Hg9 mi
Weather by CustomWeather, © 2016

See weather overviewHow to use our weather pages